Location: Baller�as
(41.9020°N, 0.1554°W)
Time: 01:34:57
(UTC+00:00)

MetOp-A - Pass Details

Date: 10 August 2020
Orbit: 819 x 821 km, 98.5° (Epoch: 22 September)

Event Time Altitude Azimuth Distance (km) Brightness Sun altitude
Exits shadow 20:05:49 - 168° (SSE) 3,186 6.8 -10.6°
Reaches altitude 10° 20:07:46 10° 170° (S) 2,410 6.2 -10.9°
Maximum altitude 20:13:07 79° 257° (WSW) 841 4.3 -11.7°
Drops below altitude 10° 20:18:30 10° 344° (NNW) 2,426 7.4 -12.5°
Sets 20:20:52 0° 346° (NNW) 3,363 8.1 -12.9°
